WBKKWBSB

Guest
Details From WBKK - Kota Kinabalu Intl
To WBSB - Brunei Intl
Flight Number -
Tags Generated
Created
Modified
Stats Distance 90 nm / 167 km
Max Altitude 0 ft / 0 m
Waypoints 2
Social Downloads 0
Likes 0
Share VATSIM

Download

Looking for another format? Having issues loading an existing format? Contact us
Advertisement - Login to hide

Notes

Generated

Route

WBKK WBSB

ID Type Via Altitude Latitude Longitude Leg Dist Tot Dist Heading (true) Name
O WBKK APT - 0 ft / 0 m 5.92478˚ 116.04594˚ - 0 nm - -
O WBSB APT - 0 ft / 0 m 4.93001˚ 114.91983˚ 90 nm 90 nm 228° / 228° -

Altitude Profile

Advertisement - Login to hide

WBKK

Details ICAO WBKK (BKI)
Name Kota Kinabalu Intl
Region Brunei and Malaysia
Timezone Asia/Kuching (UTC+8.0)
Stats Elevation 10 ft / 3 m (AMSL)
Location 5.937208° 116.051181°
Runways 1
Magnetic Variation 0.409° W

METAR

WBKK 140600Z VRB01KT 9999 FEW014 SCT140 BKN270 32/26 Q1008 NOSIG

Decode

TAF

TAF TAF AMD WBKK 140605Z 1406/1506 22010KT 9999 FEW014 TEMPO 1406/1412 23010G22KT 4000 TSRA FEW010 FEW016CB SCT035

Decode

Departure Runways

ID Width Length Bearing (true) Bearing (mag) Surface Threshold Offset Overrun Length
02 150 ft / 46 m 9,836 ft / 2,998 m 22.73° 23.14° Asphalt 1,600 ft / 488 m 0 ft / 0 m
20 150 ft / 46 m 9,836 ft / 2,998 m 202.73° 203.14° Asphalt 200 ft / 61 m 0 ft / 0 m

WBSB

Details ICAO WBSB (BWN)
Name Brunei Intl
Region Brunei and Malaysia
Timezone Asia/Brunei (UTC+8.0)
Stats Elevation 73 ft / 22 m (AMSL)
Location 4.944172° 114.928327°
Runways 1
Magnetic Variation 0.211° W

METAR

WBSB 140600Z 21007KT 9999 SCT015 BKN300 31/24 Q1009 NOSIG

Decode

TAF

TAF WBSB 140450Z 1406/1512 24010KT 9999 SCT015 FEW016CB TEMPO 1408/1410 7000 -SHRA TEMPO 1416/1420 2000 -TSRA SCT012 FEW015CB BKN140

Decode

Destination Runways

ID Width Length Bearing (true) Bearing (mag) Surface Threshold Offset Overrun Length
03 151 ft / 46 m 12,044 ft / 3,671 m 30.90° 31.11° Asphalt 0 ft / 0 m 69 ft / 21 m
21 151 ft / 46 m 12,044 ft / 3,671 m 210.90° 211.11° Asphalt 0 ft / 0 m 69 ft / 21 m

Approach Navaids

Runway Type Ident Frequency Range Bearing (true) Bearing (mag) Slope Elevation
03 Localiser BE 108.90 MHz 18 nm / 33 km 30.92° 31.13° - 73 ft / 22 m (AMSL)
03 Glidescope BE 108.90 MHz 10 nm / 19 km 30.90° 31.11° 3.00° 73 ft / 22 m (AMSL)
03 DME BE 108.90 MHz 18 nm / 33 km - - - 20 ft / 6 m (AMSL)
21 Localiser BI 109.70 MHz 18 nm / 33 km 210.90° 211.11° - 20 ft / 6 m (AMSL)
21 Glidescope BI 109.70 MHz 10 nm / 19 km 210.90° 211.11° 3.00° 73 ft / 22 m (AMSL)
21 DME BI 109.70 MHz 18 nm / 33 km - - - 73 ft / 22 m (AMSL)

Popular Alternatives